Location: Girdwood
(60.9430°N, 149.1660°W)
Time: 15:39:55
(UTC-09:00)

Iridium 86 - Visible Passes

Search period start: 21 January 2018 00:00
Search period end: 31 January 2018 00:00
Orbit: 776 x 779 km, 86.4° (Epoch: 21 January)

Date Brightness Start Highest point End Pass type
(mag) Time Alt. Az. Time Alt. Az. Time Alt. Az.
21 Jan 8.3 08:01:10 10° E 08:02:56 12° ENE 08:04:41 10° NE visible
21 Jan 7.4 19:56:06 10° N 19:57:26 16° NNE 19:57:26 16° NNE visible
21 Jan 7.7 21:36:34 10° N 21:37:56 18° N 21:37:56 18° N visible
21 Jan 8.5 23:18:03 10° NNW 23:18:24 11° NNW 23:18:24 11° NNW visible
22 Jan 7.4 19:22:51 10° NNE 19:24:14 14° NNE 19:24:14 14° NNE visible
22 Jan 7.4 21:03:01 10° N 21:04:44 21° N 21:04:44 21° N visible
22 Jan 8.1 22:44:08 10° NNW 22:45:12 15° NNW 22:45:12 15° NNW visible
23 Jan 7.9 08:32:00 10° ESE 08:35:52 21° ENE 08:39:43 10° NNE visible
23 Jan 7.4 18:49:53 10° NNE 18:51:03 12° NNE 18:51:03 12° NNE visible
23 Jan 7.1 20:29:31 10° N 20:31:33 22° NNE 20:31:33 22° NNE visible
23 Jan 7.8 22:10:23 10° NNW 22:12:02 20° NNW 22:12:02 20° NNW visible
24 Jan 8.2 07:59:56 10° E 08:02:44 15° ENE 08:05:32 10° NNE visible
24 Jan 7.0 19:56:05 10° N 19:58:23 22° NNE 19:58:23 22° NNE visible
24 Jan 7.3 21:36:43 10° N 21:38:53 25° NNW 21:38:53 25° NNW visible
24 Jan 8.4 23:18:29 10° NNW 23:19:22 13° NW 23:19:22 13° NW visible
25 Jan 7.0 19:22:46 10° N 19:25:17 20° NE 19:25:17 20° NE visible
25 Jan 6.9 21:03:07 10° N 21:05:46 31° N 21:05:46 31° N visible
25 Jan 8.0 22:44:26 10° NNW 22:46:16 18° NW 22:46:16 18° NW visible
26 Jan 7.7 08:31:28 10° SE 08:35:46 27° ENE 08:40:04 10° NNE visible
26 Jan 7.1 18:49:35 10° NNE 18:52:12 16° NE 18:52:12 16° NE visible
26 Jan 6.5 20:29:35 10° N 20:32:42 34° NNE 20:32:42 34° NNE visible
26 Jan 7.5 22:10:36 10° NNW 22:13:11 25° NW 22:13:11 25° NW visible
27 Jan 8.1 07:59:04 10° ESE 08:02:34 18° ENE 08:06:05 10° NNE visible
27 Jan 7.3 18:16:53 10° NNE 18:18:39 12° NE 18:19:10 11° NE visible
27 Jan 6.4 19:56:07 10° N 19:59:40 33° NE 19:59:40 33° NE visible
27 Jan 6.8 21:36:53 10° NNW 21:40:10 36° NNW 21:40:10 36° NNW visible
27 Jan 8.3 23:19:06 10° NW 23:20:40 13° NW 23:20:40 13° NW visible
28 Jan 8.3 07:27:18 10° E 07:29:28 13° ENE 07:31:40 10° NE visible
28 Jan 6.5 19:22:42 10° N 19:26:42 27° NE 19:26:42 27° NE visible
28 Jan 6.1 21:03:14 10° N 21:07:13 52° NNW 21:07:13 52° NNW visible
28 Jan 7.9 22:44:49 10° NNW 22:47:43 19° WNW 22:47:43 19° WNW visible
29 Jan 7.3 08:31:04 10° SE 08:35:41 33° E 08:40:20 10° NNE visible
29 Jan 6.8 18:49:26 10° NNE 18:53:12 19° ENE 18:53:49 19° ENE visible
29 Jan 5.5 20:29:40 10° N 20:34:19 64° NE 20:34:19 64° NE visible
29 Jan 7.3 22:10:52 10° NNW 22:14:50 28° WNW 22:14:50 28° WNW visible
30 Jan 7.9 07:58:25 10° SE 08:02:26 23° ENE 08:06:28 10° NNE visible
30 Jan 7.2 18:16:23 10° NNE 18:19:07 14° NE 18:21:01 12° ENE visible
30 Jan 5.7 19:56:09 10° N 20:01:15 48° ENE 20:01:32 48° E visible
30 Jan 6.6 21:37:05 10° NNW 21:41:59 41° W 21:42:03 41° W visible
30 Jan 8.4 23:20:14 10° NW 23:21:23 11° WNW 23:22:33 10° WNW visible
